Dewpoint
41 39 38 37 35 36 34 32 33 33 33 32 32 33 34 37 37 37 39 41 41 41
34 32 30 29 29 28 27 26 28 28 27 27 28 29 30 30 29 31 35 35 36 38
27 27 26 25 24 25 25 26 27 27 25 26 27 28 27 27 27 31 28 27 29 30
24 24 24 24 22 24 24 25 25 24 24 26 27 24 24 25 26 28 28 27 26 25
22 22 22 22 22 23 22 24 24 23 22 26 23 22 23 25 26 25 23 23 22 22
20 20 21 20 21 22 22 22 21 20 21 23 23 23 24 22 25 24 23 22 21 24
18 19 19 20 19 21 22 19 19 20 20 22 23 23 21 23 21 22 23 23 23 22
18 19 19 17 19 20 19 18 19 19 21 22 19 17 19 20 19 19 18 18 18 19
18 18 18 19 17 17 17 18 18 19 21 18 18 17 19 18 17 17 16 17 16 16
17 15 18 17 16 16 17 18 18 19 18 18 18 18 17 17 15 15 14 13 13 13
15 15 18 15 15 16 17 18 19 18 17 18 17 17 17 15 14 13 13 13 13 13
15 16 16 14 16 17 18 18 18 17 17 17 18 17 15 14 13 13 13 14 16 15
15 16 15 15 17 18 18 17 17 17 17 18 17 16 14 14 13 14 16 16 13 13
15 14 15 17 18 18 17 17 18 17 18 17 16 14 14 13 14 17 14 14 15 17
Wind_Speed
15 14 13 14 12 12 12 13 15 15 16 18 18 17 17 14 15 17 16 16 15 15
14 15 13 12 12 11 12 11 14 14 15 15 14 14 15 13 15 16 14 15 17 15
13 13 12 12 14 13 12 13 13 13 14 14 14 14 14 13 14 12 13 13 16 16
12 12 12 12 12 12 13 14 14 13 14 14 13 15 14 15 13 13 14 14 16 17
11 11 12 12 13 11 12 11 12 13 15 14 16 16 15 14 14 15 17 18 19 21
10 10 10 11 10 11 12 14 15 15 15 15 15 16 12 16 15 17 18 19 23 21
10 8 9 10 12 13 13 14 15 15 14 14 14 14 17 16 19 19 19 19 20 22
7 7 9 11 13 13 14 14 14 14 13 12 15 14 19 18 19 21 23 22 21 22
8 8 10 11 12 13 14 13 13 13 12 15 13 20 21 24 21 21 23 25 25 24
7 8 9 9 12 12 12 13 13 12 12 14 14 20 24 26 21 20 22 24 26 27
6 7 6 10 11 11 10 13 12 12 13 13 14 21 24 29 20 21 22 24 25 27
5 6 7 10 11 10 11 12 12 13 14 15 14 21 25 28 21 22 25 25 26 28
5 4 8 9 10 10 11 11 12 14 13 15 15 19 25 25 20 23 25 28 29 34
5 4 6 7 7 10 11 13 12 13 11 12 15 18 24 28 22 22 26 26 31 30
Wind_Direction
65 64 56 50 46 37 24 21 14 18 17 14 11 6 2 356 350 348 339 331 319 308
62 65 63 51 49 41 28 20 17 19 11 4 0 0 359 351 341 333 345 346 343 346
70 68 62 53 42 32 23 17 14 7 358 352 355 357 352 340 329 348 345 345 337 337
71 64 57 50 33 27 20 14 9 357 351 349 351 345 337 334 341 351 343 340 330 323
69 59 52 42 28 22 12 11 4 3 358 349 342 339 337 344 341 338 332 328 323 313
61 53 49 36 21 8 13 15 9 358 348 342 339 331 349 343 343 333 323 319 314 308
49 45 41 30 15 18 18 9 358 347 339 337 339 335 346 343 330 324 322 321 317 309
41 37 32 22 25 21 4 356 345 337 332 339 342 343 337 334 332 326 318 313 311 306
41 27 19 28 23 7 356 345 337 337 337 339 341 336 335 335 329 324 317 314 311 308
36 20 24 33 11 358 345 334 331 332 331 335 334 333 334 333 328 321 316 310 308 307
27 16 46 17 1 345 336 328 326 325 329 329 330 330 332 333 327 318 313 309 307 304
26 32 28 7 353 344 333 326 325 328 324 328 321 329 335 335 327 321 316 312 309 304
44 57 12 359 349 334 324 321 324 319 322 318 326 330 335 335 329 324 320 318 313 309
50 26 5 351 344 331 325 322 311 309 311 327 328 331 334 336 335 327 323 319 316 313